Location: Les Salelles
(44.4192°N, 4.1044°E)
Time: 10:04:10
(UTC+00:00)

ARGOS - Pass Details

Date: 20 January 2021
Orbit: 821 x 834 km, 98.4° (Epoch: 28 February)

Event Time Altitude Azimuth Distance (km) Brightness Sun altitude
Rises 19:09:33 0° 177° (S) 3,338 6.3 -27.0°
Reaches altitude 10° 19:11:56 10° 182° (S) 2,411 5.6 -27.4°
Maximum altitude 19:17:09 55° 260° (W) 989 3.8 -28.4°
Drops below altitude 10° 19:22:26 10° 338° (NNW) 2,433 5.8 -29.3°
Sets 19:24:51 0° 343° (NNW) 3,372 6.5 -29.7°
